Hourly Weather Otradnyy

Today, 24 July, Saturday

Time Temperature Precipitation Wind Pressure Humidity
00:00 +14°C° 0 mm 1 mps 733 mmHg 82%
01:00 +13°C° 0 mm 1 mps 733 mmHg 82%
02:00 +13°C° 0 mm 1 mps 733 mmHg 83%
03:00 +13°C° 0 mm 1 mps 733 mmHg 84%
04:00 +13°C° 0 mm 1 mps 733 mmHg 87%
05:00 +14°C° 0 mm 1 mps 733 mmHg 82%
06:00 +16°C° 0 mm 1 mps 733 mmHg 76%
07:00 +19°C° 0 mm 1 mps 733 mmHg 71%
08:00 +20°C° 0 mm 1 mps 733 mmHg 62%
09:00 +21°C° 0 mm 2 mps 733 mmHg 52%
10:00 +23°C° 0 mm 2 mps 733 mmHg 43%
11:00 +24°C° 0 mm 2 mps 733 mmHg 41%
12:00 +24°C° 0 mm 2 mps 733 mmHg 38%
13:00 +25°C° 0 mm 2 mps 733 mmHg 35%
14:00 +24°C° 0 mm 2 mps 733 mmHg 42%
15:00 +23°C° 0 mm 2 mps 734 mmHg 48%
16:00 +22°C° 0 mm 1 mps 734 mmHg 55%
17:00 +21°C° 0 mm 1 mps 734 mmHg 58%
18:00 +21°C° 0 mm 1 mps 734 mmHg 61%
19:00 +19°C° 0 mm 2 mps 734 mmHg 64%
20:00 +19°C° 0.1 mm 1 mps 734 mmHg 71%
21:00 +16°C° 0.1 mm 1 mps 735 mmHg 79%
22:00 +15°C° 0.1 mm 1 mps 735 mmHg 86%
23:00 +14°C° 0 mm 2 mps 735 mmHg 90%

Tomorrow, 25 July, Sunday

Time Temperature Precipitation Wind Pressure Humidity
00:00 +14°C° 0 mm 2 mps 735 mmHg 93%
01:00 +13°C° 0 mm 2 mps 736 mmHg 96%
02:00 +12°C° 0 mm 2 mps 736 mmHg 95%
03:00 +12°C° 0 mm 2 mps 737 mmHg 95%
04:00 +10°C° 0 mm 2 mps 737 mmHg 94%
05:00 +12°C° 0 mm 2 mps 738 mmHg 86%
06:00 +12°C° 0 mm 3 mps 738 mmHg 78%
07:00 +13°C° 0 mm 3 mps 739 mmHg 70%
08:00 +16°C° 0 mm 3 mps 739 mmHg 59%
09:00 +17°C° 0 mm 3 mps 739 mmHg 47%
10:00 +18°C° 0 mm 4 mps 740 mmHg 36%
11:00 +19°C° 0 mm 4 mps 740 mmHg 35%
12:00 +20°C° 0 mm 4 mps 740 mmHg 33%
13:00 +20°C° 0 mm 4 mps 740 mmHg 32%
14:00 +20°C° 0 mm 4 mps 740 mmHg 32%
15:00 +20°C° 0 mm 5 mps 741 mmHg 32%
16:00 +20°C° 0 mm 5 mps 741 mmHg 33%
17:00 +19°C° 0 mm 4 mps 741 mmHg 38%
18:00 +18°C° 0 mm 4 mps 742 mmHg 43%
19:00 +17°C° 0 mm 4 mps 742 mmHg 49%
20:00 +14°C° 0 mm 3 mps 742 mmHg 55%
21:00 +13°C° 0 mm 2 mps 743 mmHg 62%
22:00 +12°C° 0 mm 1 mps 743 mmHg 68%
23:00 +11°C° 0 mm 1 mps 743 mmHg 72%

Day after tomorrow, 26 July, Monday

Time Temperature Precipitation Wind Pressure Humidity
00:00 +9°C° 0 mm 1 mps 743 mmHg 77%
01:00 +8°C° 0 mm 1 mps 743 mmHg 81%
02:00 +9°C° 0 mm 1 mps 743 mmHg 77%
03:00 +9°C° 0 mm 2 mps 744 mmHg 74%
04:00 +10°C° 0 mm 2 mps 744 mmHg 70%
05:00 +12°C° 0 mm 2 mps 744 mmHg 68%
06:00 +12°C° 0 mm 3 mps 744 mmHg 66%
07:00 +13°C° 0 mm 3 mps 744 mmHg 63%
08:00 +14°C° 0 mm 3 mps 744 mmHg 57%
09:00 +15°C° 0 mm 4 mps 743 mmHg 50%
10:00 +18°C° 0 mm 4 mps 743 mmHg 44%
11:00 +18°C° 0 mm 4 mps 743 mmHg 46%
12:00 +18°C° 0 mm 4 mps 743 mmHg 47%
13:00 +18°C° 0 mm 4 mps 743 mmHg 49%
14:00 +18°C° 0 mm 4 mps 743 mmHg 49%
15:00 +18°C° 0 mm 4 mps 743 mmHg 48%
16:00 +18°C° 0 mm 4 mps 742 mmHg 48%
17:00 +18°C° 0 mm 3 mps 742 mmHg 52%
18:00 +17°C° 0 mm 3 mps 742 mmHg 55%
19:00 +17°C° 0 mm 3 mps 742 mmHg 59%
20:00 +16°C° 0 mm 3 mps 742 mmHg 64%
21:00 +14°C° 0 mm 2 mps 742 mmHg 69%
22:00 +13°C° 0 mm 2 mps 741 mmHg 74%
23:00 +13°C° 0 mm 2 mps 741 mmHg 75%

27 July, Tuesday

Time Temperature Precipitation Wind Pressure Humidity
00:00 +13°C° 0 mm 2 mps 741 mmHg 76%
01:00 +12°C° 0 mm 3 mps 740 mmHg 78%
02:00 +12°C° 0 mm 3 mps 740 mmHg 79%
03:00 +12°C° 0 mm 3 mps 740 mmHg 80%
04:00 +12°C° 0 mm 3 mps 739 mmHg 82%
05:00 +13°C° 0 mm 4 mps 739 mmHg 81%
06:00 +13°C° 0 mm 4 mps 739 mmHg 80%
07:00 +14°C° 0 mm 5 mps 738 mmHg 80%
08:00 +14°C° 0.1 mm 5 mps 738 mmHg 83%
09:00 +13°C° 0.1 mm 5 mps 738 mmHg 86%
10:00 +13°C° 0.1 mm 4 mps 738 mmHg 89%
11:00 +15°C° 0.3 mm 5 mps 738 mmHg 79%
12:00 +16°C° 0.3 mm 5 mps 737 mmHg 69%
13:00 +19°C° 0.3 mm 5 mps 737 mmHg 60%
14:00 +19°C° 0 mm 5 mps 737 mmHg 56%
15:00 +19°C° 0 mm 5 mps 737 mmHg 52%
16:00 +19°C° 0 mm 5 mps 737 mmHg 48%
17:00 +16°C° 0 mm 5 mps 738 mmHg 51%
18:00 +15°C° 0 mm 5 mps 738 mmHg 54%
19:00 +13°C° 0 mm 4 mps 738 mmHg 57%
20:00 +11°C° 0 mm 3 mps 738 mmHg 65%
21:00 +9°C° 0 mm 3 mps 738 mmHg 72%
22:00 +7°C° 0 mm 2 mps 739 mmHg 80%
23:00 +7°C° 0 mm 2 mps 739 mmHg 83%

28 July, Wednesday

Time Temperature Precipitation Wind Pressure Humidity
00:00 +6°C° 0 mm 2 mps 739 mmHg 85%
01:00 +5°C° 0 mm 2 mps 738 mmHg 88%
02:00 +5°C° 0 mm 2 mps 738 mmHg 89%
03:00 +5°C° 0 mm 2 mps 738 mmHg 90%
04:00 +4°C° 0 mm 2 mps 738 mmHg 91%
05:00 +6°C° 0 mm 2 mps 738 mmHg 83%
06:00 +8°C° 0 mm 3 mps 738 mmHg 75%
07:00 +9°C° 0 mm 3 mps 738 mmHg 67%
08:00 +10°C° 0 mm 4 mps 738 mmHg 65%
09:00 +11°C° 0 mm 4 mps 738 mmHg 62%
10:00 +12°C° 0 mm 5 mps 738 mmHg 60%
11:00 +12°C° 0 mm 4 mps 738 mmHg 62%
12:00 +12°C° 0 mm 4 mps 738 mmHg 64%
13:00 +12°C° 0 mm 4 mps 738 mmHg 67%
14:00 +12°C° 0 mm 4 mps 738 mmHg 64%
15:00 +12°C° 0 mm 4 mps 738 mmHg 61%
16:00 +12°C° 0 mm 4 mps 738 mmHg 58%
17:00 +12°C° 0 mm 4 mps 738 mmHg 59%
18:00 +12°C° 0 mm 3 mps 738 mmHg 60%
19:00 +12°C° 0 mm 3 mps 738 mmHg 61%
20:00 +11°C° 0 mm 3 mps 737 mmHg 65%
21:00 +10°C° 0 mm 2 mps 737 mmHg 70%
22:00 +9°C° 0 mm 2 mps 736 mmHg 74%
23:00 +9°C° 0 mm 2 mps 736 mmHg 73%

29 July, Thursday

Time Temperature Precipitation Wind Pressure Humidity
00:00 +10°C° 0 mm 2 mps 735 mmHg 73%
01:00 +10°C° 0 mm 2 mps 735 mmHg 72%
02:00 +10°C° 0 mm 2 mps 734 mmHg 75%
03:00 +10°C° 0 mm 2 mps 734 mmHg 78%
04:00 +10°C° 0 mm 2 mps 734 mmHg 81%
05:00 +10°C° 0 mm 3 mps 734 mmHg 81%
06:00 +11°C° 0 mm 3 mps 734 mmHg 81%
07:00 +11°C° 0 mm 3 mps 733 mmHg 82%
08:00 +12°C° 0.2 mm 3 mps 733 mmHg 81%
09:00 +13°C° 0.2 mm 3 mps 733 mmHg 81%
10:00 +13°C° 0.2 mm 3 mps 733 mmHg 80%
11:00 +14°C° 0.5 mm 4 mps 733 mmHg 78%
12:00 +15°C° 0.5 mm 4 mps 733 mmHg 76%
13:00 +17°C° 0.5 mm 4 mps 732 mmHg 74%
14:00 +15°C° 0.8 mm 4 mps 732 mmHg 79%
15:00 +15°C° 0.8 mm 4 mps 732 mmHg 84%
16:00 +14°C° 0.8 mm 3 mps 732 mmHg 89%
17:00 +13°C° 0.5 mm 3 mps 732 mmHg 90%
18:00 +14°C° 0.5 mm 2 mps 732 mmHg 90%
19:00 +14°C° 0.5 mm 2 mps 732 mmHg 91%
20:00 +12°C° 0 mm 2 mps 732 mmHg 92%
21:00 +10°C° 0 mm 2 mps 733 mmHg 93%
22:00 +9°C° 0 mm 2 mps 733 mmHg 93%
23:00 +8°C° 0 mm 2 mps 733 mmHg 94%
Show more